EW7772 Weather Reports


time (UTC)temp
C
wind
direction
speed
KPH
gust
KPH
rain 1hr
cm
rain 24hr
cm
rain mn
cm
humidity
%
barometer
mb
20260504214540 15 281 0.0 0.0 0.00 0.00 0.00 71 1011.8
20260504213040 15 281 0.0 0.0 0.00 0.00 0.00 69 1011.9
20260504211548 15 281 0.0 0.0 0.00 0.00 0.00 68 1012.1
20260504210059 16 281 0.0 0.0 0.00 0.00 0.00 67 1012.4
20260504204547 16 281 0.0 0.0 0.00 0.00 0.00 66 1012.4
20260504203044 16 281 0.0 0.0 0.00 0.00 0.00 64 1012.5
20260504201545 17 281 0.0 0.0 0.00 0.00 0.00 62 1012.6
20260504200038 17 281 0.0 0.0 0.00 0.00 0.00 58 1012.6
20260504194558 17 281 0.0 3.2 0.00 0.00 0.00 58 1012.3
20260504193037 17 283 0.0 3.2 0.00 0.00 0.00 57 1012.3
20260504191545 17 282 0.0 3.2 0.00 0.00 0.00 56 1012.2
20260504190044 17 282 0.0 1.6 0.00 0.00 0.00 55 1011.9
20260504184540 18 282 0.0 3.2 0.00 0.00 0.00 54 1011.8
20260504183034 18 277 0.0 1.6 0.00 0.00 0.00 53 1011.7
20260504181550 18 261 0.0 4.8 0.00 0.00 0.00 52 1011.6
20260504180055 19 277 1.6 8.0 0.00 0.00 0.00 52 1011.5
20260504174534 19 273 0.0 6.4 0.00 0.00 0.00 51 1011.3
20260504173037 19 250 0.0 4.8 0.00 0.00 0.00 50 1011.1
20260504171533 20 290 0.0 1.6 0.00 0.00 0.00 48 1010.9
20260504081537 18 184 0.0 3.2 0.00 0.00 0.00 52 1014.3
20260504050014 11 5 0.0 1.6 0.00 0.00 0.00 73 1014.6
20260504044514 11 360 0.0 1.6 0.00 0.00 0.00 74 1014.5
20260504043013 11 360 0.0 1.6 0.00 0.00 0.00 73 1014.5
20260504041511 11 360 0.0 0.0 0.00 0.00 0.00 72 1014.4
20260504040011 11 360 0.0 0.0 0.00 0.00 0.00 71 1014.3
20260504034508 11 360 0.0 0.0 0.00 0.00 0.00 69 1014.4
20260504033008 11 360 0.0 1.6 0.00 0.00 0.00 69 1014.4
20260504031508 11 360 0.0 0.0 0.00 0.00 0.00 69 1014.4
20260504030007 11 360 0.0 1.6 0.00 0.00 0.00 68 1014.3
20260504024508 11 360 0.0 0.0 0.00 0.00 0.00 68 1014.4
20260504023006 12 360 0.0 1.6 0.00 0.00 0.00 67 1014.4
20260504021506 12 271 0.0 1.6 0.00 0.00 0.00 67 1014.4
20260504020006 12 271 0.0 3.2 0.00 0.00 0.00 66 1014.4
20260504014515 12 271 0.0 0.0 0.00 0.00 0.00 68 1014.4
20260504013006 12 271 0.0 0.0 0.00 0.00 0.00 68 1014.4
20260504011504 12 271 0.0 1.6 0.00 0.00 0.00 67 1014.4
20260504010004 11 271 0.0 0.0 0.00 0.00 0.00 69 1014.3
20260504004502 11 271 0.0 1.6 0.00 0.00 0.00 69 1014.4
20260504003001 11 271 0.0 0.0 0.00 0.00 0.00 70 1014.6
20260504001612 11 271 0.0 0.0 0.00 0.00 0.00 71 1014.6
20260504000106 11 271 0.0 0.0 0.00 0.00 0.00 70 1014.8
20260503234555 12 271 0.0 0.0 0.00 0.00 0.00 68 1014.9
20260503233053 12 271 0.0 0.0 0.00 0.00 0.00 68 1014.9
20260503231554 12 271 0.0 0.0 0.00 0.00 0.00 68 1015.1
20260503230049 12 271 0.0 0.0 0.00 0.00 0.00 65 1015.0
20260503224550 13 271 0.0 0.0 0.00 0.00 0.00 63 1015.1
20260503223045 13 271 0.0 0.0 0.00 0.00 0.00 61 1015.2
20260503221541 13 271 0.0 0.0 0.00 0.00 0.00 60 1015.0
20260503220040 14 271 0.0 0.0 0.00 0.00 0.00 57 1014.9